Fullerton, CA

3:53 PM PDT on June 27, 2017 (GMT -0700)
Fullerton Municipal

Weather History for KFUL - May, 2009

Change the Weather History Date:

Thursday, May 21, 2009

  Actual Average Record
Temperature  
Mean Temperature 69 °F 67 °F  
Max Temperature 76 °F 75 °F 91 °F (2003)
Min Temperature 62 °F 59 °F 50 °F (2002)
Degree Days  
Heating Degree Days 0 1  
Month to date heating degree days 1 26  
Since 1 July heating degree days 995 1220  
Cooling Degree Days 4 2  
Month to date cooling degree days 93 42  
Year to date cooling degree days 178 94  
Growing Degree Days 18 (Base 50)    
Moisture  
Dew Point 55 °F    
Average Humidity 67    
Maximum Humidity 84    
Minimum Humidity 49    
Precipitation  
Precipitation 0.00 in 0.00 in 0.03 in (2006)
Month to date precipitation T 0.23  
Year to date precipitation 5.38 9.54  
Since 1 July precipitation 10.01  
Snow  
Snow 0.00 in - - ()
Month to date snowfall 0.0  
Year to date snowfall 0.0  
Snow Depth 0.00 in    
Sea Level Pressure  
Sea Level Pressure 29.91 in    
Wind  
Wind Speed 4 mph (South)    
Max Wind Speed 12 mph    
Max Gust Speed 16 mph    
Visibility 10 miles    
Events      
T = Trace of Precipitation, MM = Missing Value Source: NWS Daily Summary

Daily Weather History Graph

Daily Weather History Graph

Search for Another Location

Airport or City:

Trip Planner

Search our weather history database for the weather conditions in past years. The results will help you decide how hot, cold, wet, or windy it might be!

Date:

Astronomy

May. 21, 2009 Rise Set
Actual Time 5:46 AM PDT 7:50 PM PDT
Civil Twilight 5:18 AM PDT 8:18 PM PDT
Nautical Twilight 4:44 AM PDT 8:53 PM PDT
Astronomical Twilight 4:07 AM PDT 9:29 PM PDT
Moon 3:26 AM PDT (5/21) 5:07 PM PDT (5/21)
Length of Visible Light 15h 00m
Length of Day
14h 04m
Waning Crescent, 10% of the Moon is Illuminated
May 21
Waning Crescent
May 24
New
May 30
First Quarter
Jun 7
Full
Jun 15
Last Quarter

Hourly Weather History & Observations

Time (PDT) Temp. Dew Point Humidity Pressure Visibility Wind Dir Wind Speed Gust Speed Precip Events Conditions
12:53 AM 62.1 °F 57.0 °F 84% 29.90 in 7.0 mi SSW 3.5 mph - N/A   Partly Cloudy
1:17 AM 62.6 °F 57.2 °F 82% 29.90 in 9.0 mi Calm Calm - N/A   Mostly Cloudy
1:24 AM 62.6 °F 57.2 °F 82% 29.89 in 9.0 mi South 3.5 mph - N/A   Scattered Clouds
1:43 AM 62.6 °F 57.2 °F 82% 29.89 in 10.0 mi Calm Calm - N/A   Mostly Cloudy
1:53 AM 62.1 °F 57.0 °F 84% 29.89 in 10.0 mi Calm Calm - N/A   Mostly Cloudy
2:23 AM 62.6 °F 57.2 °F 82% 29.89 in 10.0 mi Calm Calm - N/A   Overcast
3:53 AM 62.1 °F 55.9 °F 80% 29.89 in 10.0 mi Calm Calm - N/A   Overcast
4:53 AM 62.1 °F 55.0 °F 78% 29.89 in 10.0 mi Calm Calm - N/A   Overcast
5:53 AM 62.1 °F 55.0 °F 78% 29.90 in 10.0 mi Calm Calm - N/A   Overcast
6:04 AM 62.6 °F 53.6 °F 72% 29.91 in 10.0 mi ESE 4.6 mph - N/A   Overcast
6:53 AM 62.1 °F 54.0 °F 75% 29.92 in 10.0 mi Variable 4.6 mph - N/A   Overcast
7:53 AM 63.0 °F 54.0 °F 72% 29.94 in 10.0 mi Calm Calm - N/A   Overcast
8:34 AM 64.4 °F 53.6 °F 68% 29.94 in 10.0 mi Calm Calm - N/A   Scattered Clouds
8:53 AM 64.9 °F 54.0 °F 68% 29.94 in 10.0 mi South 3.5 mph - N/A   Scattered Clouds
9:53 AM 69.1 °F 54.0 °F 58% 29.95 in 10.0 mi SW 5.8 mph - N/A   Clear
10:53 AM 71.1 °F 54.0 °F 55% 29.96 in 10.0 mi Variable 3.5 mph - N/A   Clear
11:53 AM 72.0 °F 54.0 °F 53% 29.95 in 10.0 mi Variable 5.8 mph - N/A   Clear
12:53 PM 75.9 °F 55.0 °F 48% 29.95 in 10.0 mi SW 9.2 mph - N/A   Clear
1:53 PM 75.0 °F 55.0 °F 50% 29.94 in 10.0 mi SW 8.1 mph - N/A   Clear
2:53 PM 75.0 °F 55.0 °F 50% 29.92 in 10.0 mi Variable 4.6 mph - N/A   Clear
3:53 PM 73.9 °F 54.0 °F 50% 29.90 in 10.0 mi SW 8.1 mph - N/A   Clear
4:53 PM 72.0 °F 53.1 °F 51% 29.88 in 10.0 mi South 8.1 mph - N/A   Clear
5:53 PM 70.0 °F 53.1 °F 55% 29.87 in 10.0 mi SSW 8.1 mph - N/A   Clear
6:53 PM 66.9 °F 55.0 °F 66% 29.88 in 10.0 mi South 5.8 mph - N/A   Clear
7:53 PM 64.9 °F 55.0 °F 70% 29.89 in 10.0 mi South 4.6 mph - N/A   Clear
8:53 PM 64.0 °F 55.9 °F 75% 29.90 in 10.0 mi South 4.6 mph - N/A   Clear
9:53 PM 63.0 °F 55.9 °F 78% 29.91 in 9.0 mi South 3.5 mph - N/A   Clear
10:53 PM 63.0 °F 55.9 °F 78% 29.92 in 9.0 mi SSE 4.6 mph - N/A   Clear
11:53 PM 62.1 °F 55.9 °F 80% 29.91 in 9.0 mi South 3.5 mph - N/A   Clear